TimePDT,TemperatureF,Dew PointF,Humidity,Sea Level PressureIn,VisibilityMPH,Wind Direction,Wind SpeedMPH,Gust SpeedMPH,PrecipitationIn,Events,Conditions,WindDirDegrees,DateUTC
12:32 AM,55.4,51.8,88,30.05,10.0,SE,3.5,-,N/A,,Mostly Cloudy,140,2013-03-28 07:32:00
12:53 AM,55.9,51.1,84,30.05,10.0,ESE,3.5,-,N/A,,Overcast,120,2013-03-28 07:53:00
1:53 AM,55.9,50.0,80,30.05,10.0,ESE,5.8,-,N/A,,Overcast,120,2013-03-28 08:53:00
2:53 AM,55.9,50.0,80,30.04,10.0,ESE,3.5,-,N/A,,Overcast,110,2013-03-28 09:53:00
3:53 AM,55.9,50.0,80,30.03,10.0,ESE,4.6,-,N/A,,Overcast,110,2013-03-28 10:53:00
4:53 AM,55.9,50.0,80,30.03,10.0,Calm,Calm,-,N/A,,Overcast,0,2013-03-28 11:53:00
5:33 AM,55.4,50.0,82,30.03,10.0,ESE,3.5,-,N/A,,Overcast,110,2013-03-28 12:33:00
5:53 AM,55.9,50.0,80,30.03,10.0,East,3.5,-,N/A,,Overcast,80,2013-03-28 12:53:00
6:53 AM,55.9,48.9,77,30.04,10.0,East,3.5,-,N/A,,Mostly Cloudy,80,2013-03-28 13:53:00
7:53 AM,55.9,48.9,77,30.06,10.0,Calm,Calm,-,N/A,,Mostly Cloudy,0,2013-03-28 14:53:00
8:53 AM,59.0,50.0,72,30.07,8.0,NNE,3.5,-,N/A,,Mostly Cloudy,20,2013-03-28 15:53:00
9:53 AM,60.1,50.0,69,30.07,7.0,NNW,4.6,-,N/A,,Mostly Cloudy,330,2013-03-28 16:53:00
10:53 AM,64.0,50.0,60,30.08,8.0,West,3.5,-,N/A,,Scattered Clouds,280,2013-03-28 17:53:00
11:53 AM,68.0,51.1,55,30.06,9.0,Variable,3.5,-,N/A,,Scattered Clouds,0,2013-03-28 18:53:00
12:53 PM,69.1,52.0,54,30.04,10.0,Variable,4.6,-,N/A,,Scattered Clouds,0,2013-03-28 19:53:00
1:53 PM,69.1,51.1,53,30.03,10.0,SW,6.9,-,N/A,,Scattered Clouds,220,2013-03-28 20:53:00
2:53 PM,68.0,51.1,55,30.03,10.0,WSW,9.2,-,N/A,,Scattered Clouds,240,2013-03-28 21:53:00
3:53 PM,66.9,52.0,59,30.03,10.0,SW,6.9,-,N/A,,Scattered Clouds,230,2013-03-28 22:53:00
4:53 PM,64.9,52.0,63,30.03,10.0,SW,8.1,-,N/A,,Scattered Clouds,230,2013-03-28 23:53:00
5:53 PM,64.0,52.0,65,30.02,10.0,Variable,3.5,-,N/A,,Mostly Cloudy,0,2013-03-29 00:53:00
6:53 PM,63.0,52.0,67,30.01,10.0,West,3.5,-,N/A,,Mostly Cloudy,270,2013-03-29 01:53:00
7:53 PM,62.1,53.1,72,30.01,10.0,WSW,6.9,-,N/A,,Mostly Cloudy,240,2013-03-29 02:53:00
8:53 PM,61.0,54.0,78,30.03,10.0,SW,4.6,-,N/A,,Clear,230,2013-03-29 03:53:00
9:36 PM,57.2,53.6,88,30.05,10.0,WSW,5.8,-,N/A,,Partly Cloudy,250,2013-03-29 04:36:00
9:53 PM,57.0,52.0,83,30.06,10.0,West,3.5,-,N/A,,Scattered Clouds,270,2013-03-29 04:53:00
10:53 PM,57.0,52.0,83,30.08,10.0,Calm,Calm,-,N/A,,Scattered Clouds,0,2013-03-29 05:53:00
11:53 PM,57.0,52.0,83,30.07,9.0,Calm,Calm,-,N/A,,Clear,0,2013-03-29 06:53:00